User: anonymous   Login
Location: Mt. Chestnut Observatory
(40.9038°N, 79.9956°W)
Time: 05:46:48
(UTC-04:00)
Language:

Cosmos 2034 Rocket - Orbit

View from above orbital plane
View from above orbital plane
View from above satellite
View from above satellite

Ground track
Ground track

The orbit data is extracted from the following two-line orbital elements,

1 20150U 89059B   16237.84177431  .00000047  00000-0  33225-4 0  9993
2 20150  82.9419 313.9347 0029583  32.5138 107.1102 13.75619229359646
Epoch (UTC): 24 August 2016 20:12:09
Eccentricity: 0.0029583
inclination: 82.9419°
perigee height: 958 km
apogee height: 1001 km
right ascension of ascending node: 313.9347°
argument of perigee: 32.5138°
revolutions per day: 13.75619229
mean anomaly at epoch: 107.1102°
orbit number at epoch: 35964

The dashed part of the orbit path shows where the satellite is in the earth's shadow,  

DLR